Location: Home
(42.5358°N, 72.7383°W)
Time: 04:49:19
(UTC-05:00)

A-11 Canister half - Pass Details

Date: 04 December 2021
Orbit: 1524 x 1684 km, 47.3° (Epoch: 17 January)

Event Time Altitude Azimuth Distance (km) Brightness Sun altitude
Exits shadow 02:18:37 36° 65° (ENE) 2,433 10.2 -51.6°
Drops below altitude 10° 02:23:41 10° 68° (ENE) 3,895 11.6 -50.7°
Sets 02:26:47 0° 68° (ENE) 4,864 12.3 -50.2°
